COSMOS 2251 DEB

Satellite information

Favourite Embed

Satellite Type and Status

DEBRISIN ORBIT

Key statistics

Satellite COSMOS 2251 DEB at a glance.

Uptime

11869

Days in orbit

Revolutions

≈ 14.4

Per day

Orbit

LEO

Low Earth Orbit

Inclination

74.0

Latest

Satellite identification and parameters

Extended collection of information and parameters for COSMOS 2251 DEB.

Object identification

Identified? True

Debris? True

Object name: COSMOS 2251 DEB

International designator: 1993-036X

Object number (NORAD): 33782

Object ID (CCSDS): 33782

Country: COMMONWEALTH OF INDEPENDENT STATES (CIS)

Current information (Y/N): Y

RCS size: SMALL

Orbital parameters

Period: 99.969 minutes

Inclination: 74.0335 deg

SMA: 7135.145 km

Apoapsis: 771.84 km

Periapsis: 742.179 km

RAAN: 276.6477 deg

Eccentricy: 0.00207855

Argument of periapsis: 341.3211 deg

Mean anomaly: 138.4686 deg

Mean motion: 14.40451312 rev/day

Mean motion (dot): 0.00002278 rev/day2

B* drag term: 0.000722901 1/REarth

Two-line elements (TLE)

Creation date: Dec. 13, 2025, 5:47 p.m.

Reference frame: TEME

Reference center: EARTH

Epoch: Dec. 13, 2025, 5:24 a.m. UTC

TLE line 0: 0 COSMOS 2251 DEB

TLE line 1: 1 33782U 93036X 25347.22569345 .00002278 00000-0 72290-3 0 9993

TLE line 2: 2 33782 74.0335 276.6477 0020786 341.3211 138.4686 14.40451312881338

Live tracking on map

Real-time ground track for satellite COSMOS 2251 DEB.

In-orbit conjunctions

A list of the most updated potential collisions computed for object COSMOS 2251 DEB.

Target Orbit TCA Probability of collision Miss distance Type
FENGYUN 1C DEB SSO 2025-05-25 23:12:42 0.0001304615 120.0 (m) DEBRIS
NOAA 16 DEB SSO 2024-11-15 11:55:28 0.0003868582 734.0 (m) DEBRIS

Associated space launch

Military communications satellite. Destroyed in a collision with Iridium 33.

COSMOS 2251 DEB was lifted into orbit during the mission ‘Kosmos-3M | Strela-2M 51’, on board a Kosmos-3M space rocket.

The launch took place on June 16, 1993, 4:17 a.m. from 132/1 (132L).

For more information about the launch, click the button.

Launch to space Kosmos-3M | Strela-2M 51
Kosmos-3M | Strela-2M 51

Agency: N/A

Status: Launch Successful

Launch date: June 16, 1993, 4:17 a.m. UTC

Rocket: Kosmos-3M

Launch pad: 132/1 (132L)

Location: Plesetsk Cosmodrome, Russian Federation

...

Latest news about this satellite

There are no fresh news available about this satellite. Check back as we update our databases every day.


Newsletter sign-up

Weekly statistics, charts and insights to help you stay on top of the space industry.